Regional Weather Roundup
Issued by NWS

Home | Current Version | Previous Version | Text Only | Print | Product List | Glossary On
Versions: 1 2 3 4 5 6 7 8 9 10 11 12 13 14 15 16 17 18 19 20 21 22 23 24 25 26 27 28 29 30 31 32 33 34 35 36 37 38 39 40 41 42 43 44 45 46 47 48 49 50
109
ASUS44 KJAN 171310
RWRMS

MISSISSIPPI HOURLY WEATHER ROUNDUP
NATIONAL WEATHER SERVICE JACKSON MS
800 AM CDT THU APR 17 2014

NOTE: "FAIR: INDICATES FEW OR NO CLOUDS BELOW 12,000 FEET WITH NO
SIGNIFICANT WEATHER AND/OR OBSTRUCTIONS TO VISIBILITY.

MSZ001>002-007>008-010>013-018>021-025>028-034>036-171400-
NORTHWEST MISSISSIPPI

CITY           SKY/WX    TMP DP  RH WIND       PRES   REMARKS
CLARKSDALE       N/A     50  43  76 E8        30.27R
CLEVELAND      FAIR      50  44  80 SE6       30.24R
GREENWOOD      SUNNY     49  41  74 CALM      30.26R
GREENVILLE     MOSUNNY   49  43  80 SE5       30.23R
GRENADA        FAIR      50  41  71 SE8       30.28R
OLIVE BRANCH   MOSUNNY   48  39  71 SE9G16    30.28R
OXFORD         FAIR      48  37  66 SE6       30.31R
TUNICA         SUNNY     46  41  81 CALM      30.28R
$$

MSZ003>006-009-014>017-022>024-029>033-037>039-171400-
NORTHEAST MISSISSIPPI

CITY           SKY/WX    TMP DP  RH WIND       PRES   REMARKS
BELMONT        FAIR      50  38  64 E5        30.31R
COLUMBUS AFB   SUNNY     50  41  70 SE10      30.31R
CORINTH        FAIR      46  37  71 SE7       30.31R
GOLDN TRIANGLE SUNNY     50  36  57 SE12      30.32R
STARKVILLE     FAIR      50  41  71 SE7       30.30R
TUPELO         SUNNY     50  38  63 S9        30.31R
$$

MSZ040-058-171400-
CENTRAL MISSISSIPPI

CITY           SKY/WX    TMP DP  RH WIND       PRES   REMARKS
JACKSON INTL   MOSUNNY   49  44  83 CALM      30.25R
JACKSON HAWKNS MOSUNNY   48  44  86 CALM      30.25R
MERIDIAN KEY   CLOUDY    50  42  74 E7        30.27R
MERIDIAN NAS   PTSUNNY   48  42  80 E7        30.30R
RAYMOND        PTSUNNY   46  41  81 MISG      30.25R
VICKSBURG      MOSUNNY   49  45  86 E5        30.24R
$$

MSZ059>079-171400-
SOUTH MISSISSIPPI

CITY           SKY/WX    TMP DP  RH WIND       PRES   REMARKS
BROOKHAVEN     CLOUDY    46  45  93 NE5       30.23R
COLUMBIA       CLOUDY    50  46  87 MISG      30.22R
HATTIESBURG    CLOUDY    50  46  86 NE5       30.24R
MCCOMB         CLOUDY    50  45  83 VRB3      30.22R
NATCHEZ        CLOUDY    48  45  87 E3        30.20R
PINE BELT      CLOUDY    46  43  87 NE7       30.24S
$$

MSZ080>082-171400-
COASTAL MISSISSIPPI

CITY           SKY/WX    TMP DP  RH WIND       PRES   REMARKS
BAY ST LOUIS   PTSUNNY   54  46  76 NE7       30.19R
BILOXI         CLOUDY    56  52  86 NE13      30.19R
PASCAGOULA     CLOUDY    56  52  86 NE10      30.20R
GULFPORT       PTSUNNY   59  50  72 NE8       30.18R
$$



USA.gov is the U.S. government's official web portal to all federal, state and local government web resources and services.